This is the latest recevied weather packets stored in our database for station/object EA3CO-11. If no packets are shown the sender has not sent any weather packets the latest 10 day(s).
| Time | Temp. | Humidity | Pressure | Rain* | Wind** | Luminosity | Snow |
|---|---|---|---|---|---|---|---|
| 1777845765 | 15.56° C | 99% | 1017.1 hPa | - | - | - | - |
| 1777844865 | 15.56° C | 100% | 1017.1 hPa | - | - | - | - |
| 1777843965 | 15.56° C | 100% | 1017.3 hPa | - | - | - | - |
| 1777843065 | 15.56° C | 99% | 1017.4 hPa | - | - | - | - |
| 1777842165 | 15.56° C | 99% | 1017.3 hPa | - | - | - | - |
| 1777841265 | 15.56° C | 98% | 1017.4 hPa | - | - | - | - |
| 1777840365 | 16.11° C | 95% | 1017.5 hPa | - | - | - | - |
| 1777839465 | 15.56° C | 94% | 1017.5 hPa | - | - | - | - |
| 1777838565 | 16.11° C | 94% | 1017.3 hPa | - | - | - | - |
| 1777837664 | 16.11° C | 92% | 1017.4 hPa | - | - | - | - |
| 1777836764 | 16.11° C | 93% | 1017 hPa | - | - | - | - |
| 1777835864 | 16.11° C | 94% | 1016.8 hPa | - | - | - | - |
| 1777834964 | 16.11° C | 92% | 1017 hPa | - | - | - | - |
| 1777834064 | 16.11° C | 91% | 1017.1 hPa | - | - | - | - |
| 1777833164 | 16.11° C | 90% | 1017 hPa | - | - | - | - |
| 1777832264 | 16.11° C | 89% | 1016.9 hPa | - | - | - | - |
| 1777831363 | 15.56° C | 85% | 1016.8 hPa | - | - | - | - |
| 1777830463 | 15.56° C | 88% | 1016.6 hPa | - | - | - | - |
| 1777829563 | 15.56° C | 90% | 1016.8 hPa | - | - | - | - |
| 1777828669 | 16.11° C | 87% | 1016.7 hPa | - | - | - | - |
| 1777827763 | 16.11° C | 85% | 1016.7 hPa | - | - | - | - |
| 1777826869 | 16.11° C | 86% | 1016.9 hPa | - | - | - | - |
| 1777825063 | 16.67° C | 74% | 1017 hPa | - | - | - | - |
| 1777823268 | 16.11° C | 78% | 1017.1 hPa | - | - | - | - |
| 1777821462 | 16.67° C | 76% | 1016.9 hPa | - | - | - | - |
* Rain since midnight (hover to see other rain measurements)
** Current wind speed in m/s (hover to see current wind gust speed)